When you browse on this site, cookies collect data to enhance your experience and personalize the content and advertising you see.
Visit our Privacy Policy to learn more. By continuing to use the site, you agree to this use of cookies and data.
  • In Switzerland
  • List of Countries
  • For 7 days
  • Water Temperature
  • Weather Map
  • Weather Widgets
  • user-avatar
    Login

    Hourly Weather Gold Coast

    Today, 21 August, Wednesday

    Time Temperature Precipitation Wind Pressure Humidity
    00:00 +9°C° 0 mm 3 mps 762 mmHg 56%
    01:00 +8°C° 0 mm 3 mps 762 mmHg 55%
    02:00 +8°C° 0 mm 3 mps 761 mmHg 55%
    03:00 +8°C° 0 mm 2 mps 761 mmHg 54%
    04:00 +8°C° 0 mm 2 mps 760 mmHg 56%
    05:00 +8°C° 0 mm 2 mps 760 mmHg 56%
    06:00 +8°C° 0 mm 2 mps 760 mmHg 56%
    07:00 +8°C° 0 mm 2 mps 761 mmHg 56%
    08:00 +13°C° 0 mm 2 mps 761 mmHg 47%
    09:00 +17°C° 0 mm 2 mps 760 mmHg 37%
    10:00 +21°C° 0 mm 2 mps 760 mmHg 26%
    11:00 +24°C° 0 mm 2 mps 759 mmHg 24%
    12:00 +25°C° 0 mm 2 mps 758 mmHg 22%
    13:00 +26°C° 0 mm 3 mps 757 mmHg 21%
    14:00 +26°C° 0 mm 3 mps 757 mmHg 23%
    15:00 +26°C° 0 mm 3 mps 757 mmHg 26%
    16:00 +26°C° 0 mm 4 mps 757 mmHg 28%
    17:00 +22°C° 0 mm 4 mps 757 mmHg 34%
    18:00 +20°C° 0 mm 4 mps 757 mmHg 40%
    19:00 +17°C° 0 mm 4 mps 758 mmHg 47%
    20:00 +15°C° 0 mm 4 mps 758 mmHg 50%
    21:00 +14°C° 0 mm 3 mps 758 mmHg 54%
    22:00 +12°C° 0 mm 3 mps 758 mmHg 57%
    23:00 +12°C° 0 mm 3 mps 758 mmHg 61%

    Tomorrow, 22 August, Thursday

    Time Temperature Precipitation Wind Pressure Humidity
    00:00 +11°C° 0 mm 3 mps 758 mmHg 64%
    01:00 +10°C° 0 mm 2 mps 758 mmHg 68%
    02:00 +10°C° 0 mm 2 mps 757 mmHg 70%
    03:00 +9°C° 0 mm 2 mps 757 mmHg 72%
    04:00 +9°C° 0 mm 2 mps 757 mmHg 74%
    05:00 +9°C° 0 mm 2 mps 757 mmHg 73%
    06:00 +9°C° 0 mm 2 mps 757 mmHg 72%
    07:00 +9°C° 0 mm 3 mps 758 mmHg 72%
    08:00 +13°C° 0 mm 3 mps 758 mmHg 59%
    09:00 +17°C° 0 mm 2 mps 757 mmHg 47%
    10:00 +20°C° 0 mm 2 mps 757 mmHg 35%
    11:00 +23°C° 0 mm 2 mps 756 mmHg 32%
    12:00 +24°C° 0 mm 3 mps 756 mmHg 29%
    13:00 +26°C° 0 mm 3 mps 755 mmHg 26%
    14:00 +25°C° 0 mm 3 mps 755 mmHg 28%
    15:00 +25°C° 0 mm 3 mps 755 mmHg 31%
    16:00 +25°C° 0 mm 4 mps 755 mmHg 33%
    17:00 +21°C° 0 mm 4 mps 756 mmHg 43%
    18:00 +18°C° 0 mm 4 mps 757 mmHg 54%
    19:00 +14°C° 0 mm 4 mps 758 mmHg 64%
    20:00 +14°C° 0.1 mm 5 mps 759 mmHg 68%
    21:00 +13°C° 0.1 mm 5 mps 760 mmHg 72%
    22:00 +13°C° 0.1 mm 6 mps 761 mmHg 76%
    23:00 +11°C° 0 mm 6 mps 761 mmHg 79%

    Day after tomorrow, 23 August, Friday

    Time Temperature Precipitation Wind Pressure Humidity
    00:00 +10°C° 0 mm 5 mps 761 mmHg 82%
    01:00 +9°C° 0 mm 5 mps 761 mmHg 85%
    02:00 +9°C° 0 mm 5 mps 761 mmHg 83%
    03:00 +8°C° 0 mm 5 mps 762 mmHg 81%
    04:00 +7°C° 0 mm 5 mps 762 mmHg 80%
    05:00 +7°C° 0 mm 5 mps 762 mmHg 77%
    06:00 +7°C° 0 mm 4 mps 763 mmHg 74%
    07:00 +7°C° 0 mm 4 mps 764 mmHg 71%
    08:00 +11°C° 0 mm 4 mps 764 mmHg 62%
    09:00 +14°C° 0 mm 4 mps 764 mmHg 53%
    10:00 +18°C° 0 mm 4 mps 764 mmHg 44%
    11:00 +19°C° 0 mm 4 mps 764 mmHg 44%
    12:00 +19°C° 0 mm 5 mps 763 mmHg 43%
    13:00 +20°C° 0 mm 5 mps 763 mmHg 42%
    14:00 +20°C° 0 mm 5 mps 763 mmHg 45%
    15:00 +19°C° 0 mm 5 mps 763 mmHg 47%
    16:00 +19°C° 0 mm 5 mps 763 mmHg 49%
    17:00 +17°C° 0 mm 4 mps 763 mmHg 59%
    18:00 +14°C° 0 mm 4 mps 764 mmHg 69%
    19:00 +12°C° 0 mm 4 mps 764 mmHg 79%
    20:00 +11°C° 0 mm 4 mps 765 mmHg 82%
    21:00 +11°C° 0 mm 3 mps 765 mmHg 85%
    22:00 +10°C° 0 mm 3 mps 765 mmHg 88%
    23:00 +10°C° 0 mm 3 mps 765 mmHg 88%

    24 August, Saturday

    Time Temperature Precipitation Wind Pressure Humidity
    00:00 +9°C° 0 mm 2 mps 764 mmHg 89%
    01:00 +9°C° 0 mm 2 mps 764 mmHg 90%
    02:00 +9°C° 0 mm 2 mps 764 mmHg 90%
    03:00 +9°C° 0 mm 2 mps 764 mmHg 90%
    04:00 +9°C° 0 mm 2 mps 764 mmHg 90%
    05:00 +9°C° 0 mm 2 mps 764 mmHg 88%
    06:00 +9°C° 0 mm 2 mps 764 mmHg 85%
    07:00 +10°C° 0 mm 2 mps 765 mmHg 83%
    08:00 +14°C° 0 mm 2 mps 765 mmHg 71%
    09:00 +17°C° 0 mm 2 mps 765 mmHg 59%
    10:00 +21°C° 0 mm 1 mps 764 mmHg 47%
    11:00 +21°C° 0 mm 2 mps 764 mmHg 45%
    12:00 +21°C° 0 mm 3 mps 763 mmHg 42%
    13:00 +22°C° 0 mm 3 mps 762 mmHg 40%
    14:00 +22°C° 0 mm 4 mps 762 mmHg 41%
    15:00 +21°C° 0 mm 4 mps 761 mmHg 42%
    16:00 +21°C° 0 mm 5 mps 761 mmHg 43%
    17:00 +18°C° 0 mm 4 mps 761 mmHg 55%
    18:00 +15°C° 0 mm 4 mps 761 mmHg 67%
    19:00 +12°C° 0 mm 3 mps 762 mmHg 79%
    20:00 +12°C° 0 mm 3 mps 762 mmHg 82%
    21:00 +11°C° 0 mm 3 mps 762 mmHg 85%
    22:00 +11°C° 0 mm 3 mps 762 mmHg 88%
    23:00 +11°C° 0 mm 3 mps 762 mmHg 89%

    25 August, Sunday

    Time Temperature Precipitation Wind Pressure Humidity
    00:00 +10°C° 0 mm 3 mps 762 mmHg 91%
    01:00 +10°C° 0 mm 3 mps 761 mmHg 92%
    02:00 +10°C° 0 mm 3 mps 761 mmHg 92%
    03:00 +10°C° 0 mm 3 mps 761 mmHg 92%
    04:00 +10°C° 0 mm 3 mps 761 mmHg 92%
    05:00 +10°C° 0 mm 3 mps 761 mmHg 90%
    06:00 +11°C° 0 mm 3 mps 761 mmHg 87%
    07:00 +11°C° 0 mm 3 mps 762 mmHg 84%
    08:00 +14°C° 0 mm 3 mps 762 mmHg 71%
    09:00 +19°C° 0 mm 3 mps 761 mmHg 57%
    10:00 +22°C° 0 mm 3 mps 761 mmHg 43%
    11:00 +24°C° 0 mm 3 mps 761 mmHg 41%
    12:00 +25°C° 0 mm 3 mps 760 mmHg 39%
    13:00 +25°C° 0 mm 3 mps 759 mmHg 36%
    14:00 +25°C° 0 mm 3 mps 759 mmHg 39%
    15:00 +24°C° 0 mm 3 mps 758 mmHg 42%
    16:00 +24°C° 0 mm 3 mps 758 mmHg 45%
    17:00 +21°C° 0 mm 3 mps 758 mmHg 54%
    18:00 +19°C° 0 mm 3 mps 759 mmHg 62%
    19:00 +18°C° 0 mm 3 mps 759 mmHg 71%
    20:00 +17°C° 0 mm 3 mps 759 mmHg 72%
    21:00 +17°C° 0 mm 3 mps 760 mmHg 73%
    22:00 +17°C° 0 mm 3 mps 760 mmHg 74%
    23:00 +16°C° 0 mm 3 mps 760 mmHg 77%

    26 August, Monday

    Time Temperature Precipitation Wind Pressure Humidity
    00:00 +14°C° 0 mm 3 mps 760 mmHg 80%
    01:00 +13°C° 0 mm 3 mps 760 mmHg 82%
    02:00 +13°C° 0 mm 3 mps 760 mmHg 81%
    03:00 +14°C° 0 mm 2 mps 760 mmHg 80%
    04:00 +14°C° 0 mm 2 mps 760 mmHg 79%
    05:00 +14°C° 0 mm 2 mps 760 mmHg 78%
    06:00 +14°C° 0 mm 2 mps 760 mmHg 78%
    07:00 +14°C° 0 mm 2 mps 761 mmHg 77%
    08:00 +17°C° 0 mm 2 mps 761 mmHg 67%
    09:00 +20°C° 0 mm 2 mps 761 mmHg 56%
    10:00 +24°C° 0 mm 3 mps 761 mmHg 46%
    11:00 +24°C° 0.1 mm 3 mps 760 mmHg 48%
    12:00 +22°C° 0.1 mm 4 mps 760 mmHg 50%
    13:00 +22°C° 0.1 mm 5 mps 759 mmHg 52%
    14:00 +21°C° 0.1 mm 5 mps 759 mmHg 53%
    15:00 +21°C° 0.1 mm 5 mps 759 mmHg 54%
    16:00 +21°C° 0.1 mm 5 mps 759 mmHg 55%
    17:00 +19°C° 0 mm 5 mps 760 mmHg 62%
    18:00 +17°C° 0 mm 4 mps 760 mmHg 70%
    19:00 +16°C° 0 mm 3 mps 761 mmHg 77%
    20:00 +14°C° 0 mm 3 mps 761 mmHg 80%
    21:00 +14°C° 0 mm 3 mps 762 mmHg 83%
    22:00 +13°C° 0 mm 3 mps 762 mmHg 86%
    23:00 +13°C° 0 mm 3 mps 762 mmHg 87%
    Show more